{"data":{"norad_id":68346,"epoch":"2026-09-19T02:46:02.666496Z","epoch_age_seconds":167999,"freshness":"FRESH","line1":"1 68346U 26059AB  26262.11530864  .00025064  00000+0  74998-3 0  9991","line2":"2 68346  53.1588 162.4484 0000757  92.0902 268.0187 15.34419904 27897","mean_motion":15.34419904,"eccentricity":7.57e-5,"inclination_deg":53.1588,"raan_deg":162.4484,"arg_perigee_deg":92.0902,"mean_anomaly_deg":268.0187,"bstar":0.00074998,"rev_number":2789,"period_min":93.846540718492,"perigee_km":462.12623483612,"apogee_km":463.16192909193,"semimajor_km":6840.781081964,"source":"CELESTRAK","updated_at":"2026-09-20T09:00:43.890489Z"}}